Location: Miles
(41.4492°N, 81.6087°W)
Time: 15:11:02
(UTC+00:00)

Courier 1B - Pass Details

Date: 16 September 2024
Orbit: 962 x 1208 km, 28.3° (Epoch: 06 October)

Event Time Altitude Azimuth Distance (km) Brightness Sun altitude
Rises 23:11:58 0° 258° (WSW) 4,009 12.8 3.1°
Reaches altitude 10° 23:15:31 10° 243° (WSW) 3,081 11.4 2.4°
Maximum altitude 23:20:54 21° 198° (SSW) 2,399 9.8 1.4°
Drops below altitude 10° 23:26:23 10° 153° (SSE) 3,135 9.9 0.4°
Sets 23:30:03 0° 138° (SE) 4,099 10.3 -0.3°
